Location: Newark
(49.2191°N, 12.6671°E)
Time: 20:33:25
(UTC+00:00)

ISS - Visible Passes

Search period start: 11 December 2019 00:00
Search period end: 21 December 2019 00:00
Orbit: 411 x 421 km, 51.6° (Epoch: 12 December)

Date Brightness Start Highest point End Pass type
(mag) Time Alt. Az. Time Alt. Az. Time Alt. Az.
11 Dec -0.9 16:38:34 10° W 16:40:59 19° SW 16:43:24 10° S visible
12 Dec -1.4 15:49:43 10° W 15:52:38 27° SW 15:55:32 10° SSE visible
14 Dec -0.3 15:50:20 10° WSW 15:51:56 13° SW 15:53:33 10° SSW visible
20 Dec -0.5 06:09:01 10° S 06:10:59 15° SE 06:12:57 10° E visible
